星链-33790 (STARLINK-33790)

导读

STARLINK-33790是美国星链星座的卫星,星链是SpaceX打造的低轨卫星互联网项目。该星于2025年5月16日由美国发射升空,归入星链低轨卫星星座组网。它将和星链其他卫星协同,为全球提供覆盖偏远地区、高覆盖率的宽带互联网服务,延续星链持续扩张星座规模的部署节奏。

Basic Information
目录编号:
64029
目录名称:
STARLINK-33790
国际标识:
2025-102H
轨道中心:
EARTH
卫星名称:
星链-33790
卫星全名:
星链-33790 (STARLINK-33790)
卫星状态:
在轨 (已飞行394 天)
发射日期:
2025-05-16 UTC
国别 :
美国 (US)
星等 :
--
Orbit Information
数据来源 国际轨道数据 AOE轨道数据
星历时间 2026-06-13T21:54:17+0800
17小时前
查看轨道信息
2026-06-14T03:00:00+0800
12小时前
查看轨道信息
半长轴 6950.189km 6950.131km
偏心率 0.0003559 0.0004114
轨道倾角 70.001° 70.000°
近地点辐角 267.844° 278.354°
升交点赤经 232.752° 232.216°
平近点角 92.231° 146.617°
近地点 569.578km 569.134km
远地点 574.526km 574.854km
周期 96.107分钟 96.106分钟
每日圈数 14.983315 14.983502
Detailed Information
固有亮度:
5
最大亮度:
2.5
卫星平台:
Starlink V1.0
覆盖范围:
全球
运营商:
太空探索技术公司
运营商所在国:
美国
制造商(研发单位):
太空探索技术公司
制造商所在国:
美国
使用方式:
暂无
Satellite Introduction
Starlink 计划是 SpaceX 推出的全球卫星互联网项目,通过发射低轨道卫星,为全球尤其是偏远地区提供高速、低延迟的互联网服务。自 2019 年起,Starlink 已部署数千颗卫星,旨在缩小全球数字鸿沟,推动互联网普及。该项目还为军事、航空等行业提供通信支持,带来广泛经济效益。
2D Orbit Map
3D Orbit Map
Orbit Altitude Analysis Chart
Orbit Inclination Analysis Chart
Orbit Comprehensive Analysis Chart
View Comprehensive Chart